contact: severine.martini@mio.osupytheas.fr, dominique.lefevre@mio.osupytheas.fr
Project:EMSO Ligure-ouest http://www.emso-fr.org/EMSO-France
Sensor Microcat Sea-Bird SBE37 SMP,  Serial 57510 
DOI : "https://doi.org/10.17882/97948" 
Title:EMSO Ligure Ouest : Data Bathybot capteur Microcat - deploiement 2023-04-28
Datetime,Profondeur,Latitude,Longitude,Temperature,Conductivite,Pression,Salinite
time,m,degree_north,degree_east,degree_C,S/m,db,PSU 
2023-12-26T00:00:49,2420,42.8014,5.9826,13.3460,4.60291,2453.604,38.4753
2023-12-26T00:03:49,2420,42.8014,5.9826,13.3143,4.60033,2453.582,38.4824
2023-12-26T00:06:49,2420,42.8014,5.9826,13.3026,4.60084,2453.582,38.4989
2023-12-26T00:09:49,2420,42.8014,5.9826,13.3087,4.60509,2453.604,38.5329
2023-12-26T00:12:49,2420,42.8014,5.9826,13.2993,4.60141,2453.582,38.5075
2023-12-26T00:15:49,2420,42.8014,5.9826,13.3075,4.60101,2453.582,38.4956
2023-12-26T00:18:49,2420,42.8014,5.9826,13.2998,4.60181,2453.582,38.5107
2023-12-26T00:21:49,2420,42.8014,5.9826,13.3091,4.60089,2453.574,38.4928
2023-12-26T00:24:49,2420,42.8014,5.9826,13.3004,4.60004,2453.559,38.4935
2023-12-26T00:27:49,2420,42.8014,5.9826,13.3117,4.60056,2453.582,38.4872
2023-12-26T00:30:49,2420,42.8014,5.9826,13.3141,4.60150,2453.604,38.4937
2023-12-26T00:33:49,2420,42.8014,5.9826,13.3446,4.60176,2453.559,38.4659
2023-12-26T00:36:49,2420,42.8014,5.9826,13.3507,4.60272,2453.559,38.4689
2023-12-26T00:39:49,2420,42.8014,5.9826,13.3493,4.60272,2453.582,38.4703
2023-12-26T00:42:49,2420,42.8014,5.9826,13.3480,4.60417,2453.582,38.4853
2023-12-26T00:45:49,2420,42.8014,5.9826,13.3098,4.60246,2453.559,38.5070
2023-12-26T00:48:49,2420,42.8014,5.9826,13.3163,4.60333,2453.574,38.5088
2023-12-26T00:51:49,2420,42.8014,5.9826,13.3145,4.60121,2453.551,38.4905
2023-12-26T00:54:50,2420,42.8014,5.9826,13.3214,4.60351,2453.574,38.5054
2023-12-26T00:57:49,2420,42.8014,5.9826,13.3519,4.60417,2453.582,38.4814
2023-12-26T01:00:49,2420,42.8014,5.9826,13.3799,4.60240,2453.574,38.4370
2023-12-26T01:03:49,2420,42.8014,5.9826,13.3305,4.60317,2453.559,38.4931
2023-12-26T01:06:49,2420,42.8014,5.9826,13.3351,4.60389,2453.596,38.4954
2023-12-26T01:09:49,2420,42.8014,5.9826,13.3252,4.60228,2453.596,38.4900
2023-12-26T01:12:49,2420,42.8014,5.9826,13.3506,4.60172,2453.596,38.4596
2023-12-26T01:15:49,2420,42.8014,5.9826,13.3486,4.60036,2453.619,38.4487
2023-12-26T01:18:49,2420,42.8014,5.9826,13.3113,4.59972,2453.619,38.4796
2023-12-26T01:21:49,2420,42.8014,5.9826,13.3008,4.59984,2453.574,38.4912
2023-12-26T01:24:49,2420,42.8014,5.9826,13.3524,4.59827,2453.582,38.4252
2023-12-26T01:27:49,2420,42.8014,5.9826,13.3094,4.60025,2453.582,38.4866
2023-12-26T01:30:49,2420,42.8014,5.9826,13.3859,4.60021,2453.604,38.4104
2023-12-26T01:33:49,2420,42.8014,5.9826,13.3326,4.60023,2453.559,38.4634
2023-12-26T01:36:49,2420,42.8014,5.9826,13.3271,4.59986,2453.596,38.4653
2023-12-26T01:39:49,2420,42.8014,5.9826,13.3196,4.59978,2453.596,38.4720
2023-12-26T01:42:49,2420,42.8014,5.9826,13.3150,4.59940,2453.582,38.4730
2023-12-26T01:45:49,2420,42.8014,5.9826,13.3324,4.59926,2453.627,38.4543
2023-12-26T01:48:49,2420,42.8014,5.9826,13.3002,4.59959,2453.582,38.4894
2023-12-26T01:51:49,2420,42.8014,5.9826,13.3013,4.59986,2453.604,38.4909
2023-12-26T01:54:49,2420,42.8014,5.9826,13.3077,4.59946,2453.604,38.4807
2023-12-26T01:57:49,2420,42.8014,5.9826,13.3142,4.59932,2453.604,38.4730
2023-12-26T02:00:49,2420,42.8014,5.9826,13.3078,4.59948,2453.627,38.4809
2023-12-26T02:03:49,2420,42.8014,5.9826,13.3012,4.59956,2453.604,38.4881
2023-12-26T02:06:49,2420,42.8014,5.9826,13.3092,4.59935,2453.619,38.4783
2023-12-26T02:09:49,2420,42.8014,5.9826,13.3113,4.59967,2453.582,38.4792
2023-12-26T02:12:49,2420,42.8014,5.9826,13.3071,4.59941,2453.619,38.4808
2023-12-26T02:15:49,2420,42.8014,5.9826,13.3094,4.59974,2453.619,38.4817
2023-12-26T02:18:49,2420,42.8014,5.9826,13.3054,4.59938,2453.641,38.4823
2023-12-26T02:21:49,2420,42.8014,5.9826,13.2993,4.59935,2453.641,38.4880
2023-12-26T02:24:49,2420,42.8014,5.9826,13.3049,4.59952,2453.604,38.4841
2023-12-26T02:27:49,2420,42.8014,5.9826,13.3021,4.59950,2453.604,38.4867
2023-12-26T02:30:49,2420,42.8014,5.9826,13.3026,4.59974,2453.612,38.4885
2023-12-26T02:33:49,2420,42.8014,5.9826,13.3029,4.59934,2453.612,38.4844
2023-12-26T02:36:49,2420,42.8014,5.9826,13.3002,4.59939,2453.649,38.4875
2023-12-26T02:39:49,2420,42.8014,5.9826,13.3060,4.59965,2453.619,38.4842
2023-12-26T02:42:49,2420,42.8014,5.9826,13.3027,4.59949,2453.627,38.4860
2023-12-26T02:45:49,2420,42.8014,5.9826,13.3106,4.59923,2453.604,38.4758
2023-12-26T02:48:49,2420,42.8014,5.9826,13.3056,4.59940,2453.627,38.4823
2023-12-26T02:51:49,2420,42.8014,5.9826,13.3074,4.59922,2453.627,38.4788
2023-12-26T02:54:49,2420,42.8014,5.9826,13.3057,4.59927,2453.649,38.4809
2023-12-26T02:57:49,2420,42.8014,5.9826,13.3033,4.59920,2453.627,38.4827
2023-12-26T03:00:49,2420,42.8014,5.9826,13.3064,4.59936,2453.687,38.4810
2023-12-26T03:03:49,2420,42.8014,5.9826,13.3038,4.59925,2453.612,38.4826
2023-12-26T03:06:49,2420,42.8014,5.9826,13.3033,4.59944,2453.627,38.4850
2023-12-26T03:09:49,2420,42.8014,5.9826,13.3191,4.59948,2453.604,38.4697
2023-12-26T03:12:49,2420,42.8014,5.9826,13.2999,4.59930,2453.627,38.4870
2023-12-26T03:15:49,2420,42.8014,5.9826,13.3089,4.59926,2453.649,38.4776
2023-12-26T03:18:49,2420,42.8014,5.9826,13.3086,4.59931,2453.695,38.4784
2023-12-26T03:21:49,2420,42.8014,5.9826,13.3102,4.59937,2453.672,38.4773
2023-12-26T03:24:49,2420,42.8014,5.9826,13.2997,4.59945,2453.695,38.4886
2023-12-26T03:27:49,2420,42.8014,5.9826,13.3054,4.59960,2453.687,38.4844
2023-12-26T03:30:49,2420,42.8014,5.9826,13.3197,4.59954,2453.695,38.4696
2023-12-26T03:33:49,2420,42.8014,5.9826,13.3098,4.59991,2453.695,38.4829
2023-12-26T03:36:49,2420,42.8014,5.9826,13.3229,4.60019,2453.695,38.4725
2023-12-26T03:39:49,2420,42.8014,5.9826,13.3206,4.59997,2453.672,38.4727
2023-12-26T03:42:49,2420,42.8014,5.9826,13.3373,4.59966,2453.709,38.4532
2023-12-26T03:45:49,2420,42.8014,5.9826,13.3030,4.59991,2453.672,38.4896
2023-12-26T03:48:49,2420,42.8014,5.9826,13.3026,4.59989,2453.672,38.4899
2023-12-26T03:51:49,2420,42.8014,5.9826,13.3440,4.59996,2453.680,38.4495
2023-12-26T03:54:49,2420,42.8014,5.9826,13.3127,4.60025,2453.717,38.4832
2023-12-26T03:57:49,2420,42.8014,5.9826,13.3572,4.60194,2453.695,38.4551
2023-12-26T04:00:49,2420,42.8014,5.9826,13.3300,4.60341,2453.717,38.4958
2023-12-26T04:03:49,2420,42.8014,5.9826,13.3555,4.60348,2453.717,38.4713
2023-12-26T04:06:49,2420,42.8014,5.9826,13.3479,4.60359,2453.695,38.4798
2023-12-26T04:09:49,2420,42.8014,5.9826,13.3228,4.60223,2453.709,38.4919
2023-12-26T04:12:49,2420,42.8014,5.9826,13.3619,4.60376,2453.732,38.4674
2023-12-26T04:15:49,2420,42.8014,5.9826,13.3266,4.60241,2453.717,38.4899
2023-12-26T04:18:49,2420,42.8014,5.9826,13.3300,4.60213,2453.777,38.4838
2023-12-26T04:21:49,2420,42.8014,5.9826,13.3180,4.60252,2453.732,38.4994
2023-12-26T04:24:49,2420,42.8014,5.9826,13.3083,4.60217,2453.754,38.5058
2023-12-26T04:27:49,2420,42.8014,5.9826,13.3261,4.60192,2453.740,38.4856
2023-12-26T04:30:49,2420,42.8014,5.9826,13.3472,4.60416,2453.732,38.4859
2023-12-26T04:33:49,2420,42.8014,5.9826,13.3276,4.60245,2453.754,38.4891
2023-12-26T04:36:49,2420,42.8014,5.9826,13.3106,4.60169,2453.777,38.4988
2023-12-26T04:39:49,2420,42.8014,5.9826,13.3122,4.60048,2453.754,38.4859
2023-12-26T04:42:49,2420,42.8014,5.9826,13.3094,4.60142,2453.740,38.4975
2023-12-26T04:45:49,2420,42.8014,5.9826,13.3089,4.60025,2453.785,38.4869
2023-12-26T04:48:50,2420,42.8014,5.9826,13.3026,4.60008,2453.777,38.4917
2023-12-26T04:51:49,2420,42.8014,5.9826,13.2995,4.60026,2453.800,38.4964
2023-12-26T04:54:49,2420,42.8014,5.9826,13.3011,4.60013,2453.762,38.4935
2023-12-26T04:57:49,2420,42.8014,5.9826,13.3011,4.60076,2453.762,38.4995
2023-12-26T05:00:49,2420,42.8014,5.9826,13.3018,4.60132,2453.785,38.5042
2023-12-26T05:03:49,2420,42.8014,5.9826,13.3043,4.60211,2453.762,38.5091
2023-12-26T05:06:49,2420,42.8014,5.9826,13.3094,4.60106,2453.785,38.4941
2023-12-26T05:09:49,2420,42.8014,5.9826,13.3129,4.60033,2453.800,38.4837
2023-12-26T05:12:49,2420,42.8014,5.9826,13.3025,4.60001,2453.762,38.4910
2023-12-26T05:15:49,2420,42.8014,5.9826,13.3007,4.59974,2453.785,38.4902
2023-12-26T05:18:49,2420,42.8014,5.9826,13.3005,4.59964,2453.770,38.4895
2023-12-26T05:21:49,2420,42.8014,5.9826,13.2989,4.60069,2453.822,38.5010
2023-12-26T05:24:49,2420,42.8014,5.9826,13.3016,4.59999,2453.785,38.4918
2023-12-26T05:27:49,2420,42.8014,5.9826,13.3022,4.60050,2453.807,38.4959
2023-12-26T05:30:49,2420,42.8014,5.9826,13.2999,4.59973,2453.762,38.4910
2023-12-26T05:33:49,2420,42.8014,5.9826,13.3002,4.59956,2453.807,38.4890
2023-12-26T05:36:49,2420,42.8014,5.9826,13.2988,4.59966,2453.807,38.4914
2023-12-26T05:39:49,2420,42.8014,5.9826,13.2998,4.59961,2453.785,38.4899
2023-12-26T05:42:49,2420,42.8014,5.9826,13.2993,4.59952,2453.785,38.4896
2023-12-26T05:45:49,2420,42.8014,5.9826,13.2997,4.59958,2453.807,38.4898
2023-12-26T05:48:49,2420,42.8014,5.9826,13.2995,4.59959,2453.807,38.4900
2023-12-26T05:51:49,2420,42.8014,5.9826,13.3000,4.59971,2453.830,38.4907
2023-12-26T05:54:49,2420,42.8014,5.9826,13.2998,4.59963,2453.853,38.4901
2023-12-26T05:57:49,2420,42.8014,5.9826,13.2995,4.59966,2453.807,38.4907
2023-12-26T06:00:49,2420,42.8014,5.9826,13.2987,4.59954,2453.845,38.4903
2023-12-26T06:03:49,2420,42.8014,5.9826,13.2987,4.59946,2453.830,38.4896
2023-12-26T06:06:49,2420,42.8014,5.9826,13.2993,4.59936,2453.807,38.4881
2023-12-26T06:09:49,2420,42.8014,5.9826,13.2981,4.59935,2453.853,38.4892
2023-12-26T06:12:49,2420,42.8014,5.9826,13.2979,4.59927,2453.830,38.4886
2023-12-26T06:15:49,2420,42.8014,5.9826,13.2979,4.59927,2453.830,38.4886
2023-12-26T06:18:49,2420,42.8014,5.9826,13.2980,4.59925,2453.867,38.4883
2023-12-26T06:21:49,2420,42.8014,5.9826,13.2980,4.59930,2453.830,38.4888
2023-12-26T06:24:49,2420,42.8014,5.9826,13.2974,4.59922,2453.807,38.4886
2023-12-26T06:27:49,2420,42.8014,5.9826,13.2978,4.59924,2453.867,38.4884
2023-12-26T06:30:49,2420,42.8014,5.9826,13.2975,4.59927,2453.815,38.4890
2023-12-26T06:33:49,2420,42.8014,5.9826,13.2978,4.59927,2453.853,38.4887
2023-12-26T06:36:49,2420,42.8014,5.9826,13.2982,4.59931,2453.815,38.4887
2023-12-26T06:39:49,2420,42.8014,5.9826,13.2978,4.59926,2453.830,38.4886
2023-12-26T06:42:49,2420,42.8014,5.9826,13.2979,4.59925,2453.853,38.4884
2023-12-26T06:45:49,2420,42.8014,5.9826,13.2990,4.59933,2453.830,38.4881
2023-12-26T06:48:49,2420,42.8014,5.9826,13.2978,4.59923,2453.853,38.4883
2023-12-26T06:51:49,2420,42.8014,5.9826,13.2979,4.59933,2453.830,38.4891
2023-12-26T06:54:49,2420,42.8014,5.9826,13.2982,4.59922,2453.830,38.4879
2023-12-26T06:57:49,2420,42.8014,5.9826,13.2979,4.59926,2453.830,38.4884
2023-12-26T07:00:49,2420,42.8014,5.9826,13.2973,4.59920,2453.845,38.4885
2023-12-26T07:03:49,2420,42.8014,5.9826,13.2978,4.59915,2453.875,38.4876
2023-12-26T07:06:49,2420,42.8014,5.9826,13.2973,4.59920,2453.830,38.4885
2023-12-26T07:09:49,2420,42.8014,5.9826,13.2975,4.59937,2453.875,38.4899
2023-12-26T07:12:49,2420,42.8014,5.9826,13.2979,4.59925,2453.830,38.4883
2023-12-26T07:15:49,2420,42.8014,5.9826,13.2977,4.59927,2453.838,38.4888
2023-12-26T07:18:49,2420,42.8014,5.9826,13.2978,4.59931,2453.815,38.4891
2023-12-26T07:21:49,2420,42.8014,5.9826,13.2978,4.59923,2453.830,38.4883
2023-12-26T07:24:49,2420,42.8014,5.9826,13.2975,4.59928,2453.853,38.4892
2023-12-26T07:27:49,2420,42.8014,5.9826,13.2976,4.59931,2453.853,38.4893
2023-12-26T07:30:49,2420,42.8014,5.9826,13.2978,4.59923,2453.830,38.4883
2023-12-26T07:33:49,2420,42.8014,5.9826,13.2981,4.59923,2453.853,38.4880
2023-12-26T07:36:49,2420,42.8014,5.9826,13.2976,4.59930,2453.867,38.4892
2023-12-26T07:39:49,2420,42.8014,5.9826,13.2975,4.59923,2453.853,38.4885
2023-12-26T07:42:49,2420,42.8014,5.9826,13.2976,4.60060,2453.830,38.5014
2023-12-26T07:45:49,2420,42.8014,5.9826,13.2975,4.59940,2453.853,38.4902
2023-12-26T07:48:49,2420,42.8014,5.9826,13.2976,4.59931,2453.845,38.4893
2023-12-26T07:51:49,2420,42.8014,5.9826,13.2979,4.59935,2453.830,38.4894
2023-12-26T07:54:49,2420,42.8014,5.9826,13.2978,4.59925,2453.830,38.4885
2023-12-26T07:57:49,2420,42.8014,5.9826,13.2974,4.59925,2453.853,38.4889
2023-12-26T08:00:49,2420,42.8014,5.9826,13.2977,4.59920,2453.853,38.4881
2023-12-26T08:03:49,2420,42.8014,5.9826,13.2978,4.59917,2453.830,38.4877
2023-12-26T08:06:49,2420,42.8014,5.9826,13.2979,4.59924,2453.830,38.4883
2023-12-26T08:09:49,2420,42.8014,5.9826,13.2975,4.59968,2453.830,38.4928
2023-12-26T08:12:49,2420,42.8014,5.9826,13.2979,4.60017,2453.830,38.4971
2023-12-26T08:15:49,2420,42.8014,5.9826,13.2985,4.59989,2453.807,38.4939
2023-12-26T08:18:49,2420,42.8014,5.9826,13.2979,4.60212,2453.815,38.5155
2023-12-26T08:21:49,2420,42.8014,5.9826,13.2982,4.60197,2453.830,38.5138
2023-12-26T08:24:49,2420,42.8014,5.9826,13.2980,4.60161,2453.830,38.5106
2023-12-26T08:27:49,2420,42.8014,5.9826,13.2979,4.60213,2453.853,38.5156
2023-12-26T08:30:49,2420,42.8014,5.9826,13.2981,4.60054,2453.845,38.5004
2023-12-26T08:33:49,2420,42.8014,5.9826,13.2975,4.60165,2453.830,38.5115
2023-12-26T08:36:49,2420,42.8014,5.9826,13.2979,4.60071,2453.830,38.5022
2023-12-26T08:39:49,2420,42.8014,5.9826,13.2982,4.59951,2453.853,38.4906
2023-12-26T08:42:49,2420,42.8014,5.9826,13.2979,4.59951,2453.807,38.4909
2023-12-26T08:45:49,2420,42.8014,5.9826,13.2981,4.59959,2453.867,38.4914
2023-12-26T08:48:49,2420,42.8014,5.9826,13.2974,4.59955,2453.830,38.4917
2023-12-26T08:51:49,2420,42.8014,5.9826,13.2979,4.59943,2453.845,38.4901
2023-12-26T08:54:50,2420,42.8014,5.9826,13.2980,4.59952,2453.807,38.4909
2023-12-26T08:57:49,2420,42.8014,5.9826,13.2979,4.59959,2453.793,38.4916
2023-12-26T09:00:49,2420,42.8014,5.9826,13.2976,4.60003,2453.830,38.4961
2023-12-26T09:03:49,2420,42.8014,5.9826,13.2975,4.60022,2453.853,38.4979
2023-12-26T09:06:49,2420,42.8014,5.9826,13.2977,4.60129,2453.830,38.5079
2023-12-26T09:09:49,2420,42.8014,5.9826,13.2979,4.60164,2453.853,38.5110
2023-12-26T09:12:49,2420,42.8014,5.9826,13.2975,4.59951,2453.822,38.4913
2023-12-26T09:15:49,2420,42.8014,5.9826,13.2976,4.59954,2453.822,38.4914
2023-12-26T09:18:49,2420,42.8014,5.9826,13.2985,4.59943,2453.815,38.4896
2023-12-26T09:21:49,2420,42.8014,5.9826,13.2977,4.60145,2453.807,38.5094
2023-12-26T09:24:49,2420,42.8014,5.9826,13.2979,4.59967,2453.830,38.4923
2023-12-26T09:27:49,2420,42.8014,5.9826,13.2975,4.59968,2453.830,38.4929
2023-12-26T09:30:49,2420,42.8014,5.9826,13.2977,4.59959,2453.830,38.4918
2023-12-26T09:33:49,2420,42.8014,5.9826,13.2978,4.59952,2453.830,38.4910
2023-12-26T09:36:49,2420,42.8014,5.9826,13.2977,4.59949,2453.807,38.4909
2023-12-26T09:39:49,2420,42.8014,5.9826,13.2976,4.59940,2453.793,38.4902
2023-12-26T09:42:49,2420,42.8014,5.9826,13.2976,4.59959,2453.830,38.4919
2023-12-26T09:45:49,2420,42.8014,5.9826,13.2973,4.59953,2453.830,38.4916
2023-12-26T09:48:49,2420,42.8014,5.9826,13.2975,4.59960,2453.807,38.4922
2023-12-26T09:51:49,2420,42.8014,5.9826,13.2978,4.59946,2453.807,38.4905
2023-12-26T09:54:49,2420,42.8014,5.9826,13.2981,4.59948,2453.785,38.4904
2023-12-26T09:57:49,2420,42.8014,5.9826,13.2979,4.59953,2453.830,38.4911
2023-12-26T10:00:49,2420,42.8014,5.9826,13.2987,4.60161,2453.793,38.5099
2023-12-26T10:03:49,2420,42.8014,5.9826,13.2979,4.60091,2453.822,38.5041
2023-12-26T10:06:49,2420,42.8014,5.9826,13.2978,4.60095,2453.807,38.5046
2023-12-26T10:09:49,2420,42.8014,5.9826,13.2979,4.60092,2453.807,38.5042
2023-12-26T10:12:49,2420,42.8014,5.9826,13.2985,4.60012,2453.807,38.4960
2023-12-26T10:15:49,2420,42.8014,5.9826,13.2975,4.60014,2453.807,38.4972
2023-12-26T10:18:49,2420,42.8014,5.9826,13.2980,4.60090,2453.785,38.5039
2023-12-26T10:21:49,2420,42.8014,5.9826,13.2994,4.60008,2453.807,38.4948
2023-12-26T10:24:49,2420,42.8014,5.9826,13.2990,4.60111,2453.762,38.5049
2023-12-26T10:27:49,2420,42.8014,5.9826,13.2982,4.60007,2453.762,38.4959
2023-12-26T10:30:49,2420,42.8014,5.9826,13.2982,4.60011,2453.785,38.4963
2023-12-26T10:33:49,2420,42.8014,5.9826,13.2977,4.60099,2453.777,38.5051
2023-12-26T10:36:49,2420,42.8014,5.9826,13.2979,4.60045,2453.762,38.4998
2023-12-26T10:39:49,2420,42.8014,5.9826,13.3059,4.60033,2453.800,38.4906
2023-12-26T10:42:49,2420,42.8014,5.9826,13.2981,4.60080,2453.785,38.5029
2023-12-26T10:45:49,2420,42.8014,5.9826,13.2978,4.60096,2453.762,38.5047
2023-12-26T10:48:49,2420,42.8014,5.9826,13.2980,4.60295,2453.777,38.5233
2023-12-26T10:51:49,2420,42.8014,5.9826,13.3022,4.60117,2453.762,38.5023
2023-12-26T10:54:49,2420,42.8014,5.9826,13.3012,4.60183,2453.762,38.5094
2023-12-26T10:57:49,2420,42.8014,5.9826,13.3012,4.60047,2453.762,38.4966
2023-12-26T11:00:49,2420,42.8014,5.9826,13.2978,4.59979,2453.740,38.4936
2023-12-26T11:03:49,2420,42.8014,5.9826,13.2972,4.60158,2453.785,38.5111
2023-12-26T11:06:49,2420,42.8014,5.9826,13.2977,4.60241,2453.785,38.5185
2023-12-26T11:09:49,2420,42.8014,5.9826,13.2986,4.60336,2453.740,38.5266
2023-12-26T11:12:49,2420,42.8014,5.9826,13.3109,4.60261,2453.762,38.5072
2023-12-26T11:15:49,2420,42.8014,5.9826,13.2979,4.60495,2453.748,38.5423
2023-12-26T11:18:49,2420,42.8014,5.9826,13.2976,4.60554,2453.762,38.5481
2023-12-26T11:21:49,2420,42.8014,5.9826,13.3075,4.60211,2453.717,38.5059
2023-12-26T11:24:49,2420,42.8014,5.9826,13.4190,4.60062,2453.740,38.3815
2023-12-26T11:27:49,2420,42.8014,5.9826,13.3210,4.60098,2453.740,38.4818
2023-12-26T11:30:49,2420,42.8014,5.9826,13.3427,4.60132,2453.732,38.4636
2023-12-26T11:33:49,2420,42.8014,5.9826,13.4274,4.60074,2453.754,38.3742
2023-12-26T11:36:49,2420,42.8014,5.9826,13.3148,4.60053,2453.754,38.4838
2023-12-26T11:39:49,2420,42.8014,5.9826,13.3102,4.60048,2453.732,38.4879
2023-12-26T11:42:49,2420,42.8014,5.9826,13.3164,4.60114,2453.732,38.4879
2023-12-26T11:45:49,2420,42.8014,5.9826,13.3275,4.60150,2453.740,38.4802
2023-12-26T11:48:49,2420,42.8014,5.9826,13.3162,4.60080,2453.732,38.4849
2023-12-26T11:51:49,2420,42.8014,5.9826,13.3155,4.60060,2453.717,38.4838
2023-12-26T11:54:49,2420,42.8014,5.9826,13.3077,4.60008,2453.740,38.4866
2023-12-26T11:57:49,2420,42.8014,5.9826,13.3006,4.60106,2453.732,38.5028
2023-12-26T12:00:49,2420,42.8014,5.9826,13.2980,4.60024,2453.709,38.4977
2023-12-26T12:03:49,2420,42.8014,5.9826,13.3712,4.60122,2453.717,38.4344
2023-12-26T12:06:49,2420,42.8014,5.9826,13.2975,4.60483,2453.695,38.5416
2023-12-26T12:09:49,2420,42.8014,5.9826,13.3014,4.60392,2453.732,38.5291
2023-12-26T12:12:49,2420,42.8014,5.9826,13.2977,4.60208,2453.717,38.5154
2023-12-26T12:15:49,2420,42.8014,5.9826,13.2978,4.60286,2453.695,38.5227
2023-12-26T12:18:49,2420,42.8014,5.9826,13.2983,4.60082,2453.717,38.5029
2023-12-26T12:21:49,2420,42.8014,5.9826,13.3310,4.60329,2453.695,38.4938
2023-12-26T12:24:49,2420,42.8014,5.9826,13.2981,4.60302,2453.732,38.5239
2023-12-26T12:27:49,2420,42.8014,5.9826,13.3784,4.60079,2453.709,38.4232
2023-12-26T12:30:49,2420,42.8014,5.9826,13.2976,4.60174,2453.695,38.5122
2023-12-26T12:33:49,2420,42.8014,5.9826,13.2978,4.60113,2453.672,38.5064
2023-12-26T12:36:49,2420,42.8014,5.9826,13.2978,4.60011,2453.695,38.4967
2023-12-26T12:39:49,2420,42.8014,5.9826,13.2978,4.59991,2453.695,38.4948
2023-12-26T12:42:49,2420,42.8014,5.9826,13.2975,4.60604,2453.695,38.5530
2023-12-26T12:45:49,2420,42.8014,5.9826,13.2975,4.60199,2453.695,38.5148
2023-12-26T12:48:49,2420,42.8014,5.9826,13.2975,4.60034,2453.672,38.4992
2023-12-26T12:51:49,2420,42.8014,5.9826,13.2979,4.60092,2453.695,38.5042
2023-12-26T12:54:49,2420,42.8014,5.9826,13.2979,4.60211,2453.695,38.5155
2023-12-26T12:57:49,2420,42.8014,5.9826,13.2973,4.60358,2453.687,38.5299
2023-12-26T13:00:49,2420,42.8014,5.9826,13.2973,4.60081,2453.695,38.5038
2023-12-26T13:03:49,2420,42.8014,5.9826,13.2973,4.60020,2453.695,38.4980
2023-12-26T13:06:49,2420,42.8014,5.9826,13.2976,4.59985,2453.695,38.4944
2023-12-26T13:09:49,2420,42.8014,5.9826,13.2975,4.59964,2453.672,38.4925
2023-12-26T13:12:49,2420,42.8014,5.9826,13.2973,4.59996,2453.672,38.4958
2023-12-26T13:15:49,2420,42.8014,5.9826,13.2977,4.60042,2453.695,38.4998
2023-12-26T13:18:49,2420,42.8014,5.9826,13.2976,4.60220,2453.635,38.5166
2023-12-26T13:21:49,2420,42.8014,5.9826,13.2978,4.60179,2453.695,38.5126
2023-12-26T13:24:49,2420,42.8014,5.9826,13.2974,4.60040,2453.695,38.4998
2023-12-26T13:27:49,2420,42.8014,5.9826,13.2973,4.60206,2453.709,38.5157
2023-12-26T13:30:49,2420,42.8014,5.9826,13.2981,4.60212,2453.687,38.5153
2023-12-26T13:33:49,2420,42.8014,5.9826,13.2975,4.60112,2453.649,38.5065
2023-12-26T13:36:49,2420,42.8014,5.9826,13.2983,4.60054,2453.672,38.5003
2023-12-26T13:39:49,2420,42.8014,5.9826,13.2974,4.59977,2453.695,38.4938
2023-12-26T13:42:49,2420,42.8014,5.9826,13.2977,4.59951,2453.672,38.4912
2023-12-26T13:45:49,2420,42.8014,5.9826,13.2977,4.60047,2453.695,38.5002
2023-12-26T13:48:49,2420,42.8014,5.9826,13.2975,4.59964,2453.695,38.4925
2023-12-26T13:51:49,2420,42.8014,5.9826,13.2975,4.60058,2453.672,38.5015
2023-12-26T13:54:49,2420,42.8014,5.9826,13.2974,4.59994,2453.672,38.4954
2023-12-26T13:57:49,2420,42.8014,5.9826,13.2973,4.59973,2453.680,38.4935
2023-12-26T14:00:49,2420,42.8014,5.9826,13.2974,4.60527,2453.687,38.5458
2023-12-26T14:03:49,2420,42.8014,5.9826,13.2975,4.60197,2453.649,38.5145
2023-12-26T14:06:49,2420,42.8014,5.9826,13.2972,4.60271,2453.672,38.5219
2023-12-26T14:09:49,2420,42.8014,5.9826,13.2975,4.60461,2453.649,38.5395
2023-12-26T14:12:49,2420,42.8014,5.9826,13.2998,4.60303,2453.672,38.5223
2023-12-26T14:15:49,2420,42.8014,5.9826,13.2973,4.60105,2453.649,38.5060
2023-12-26T14:18:49,2420,42.8014,5.9826,13.2983,4.60489,2453.672,38.5413
2023-12-26T14:21:49,2420,42.8014,5.9826,13.2991,4.60039,2453.672,38.4980
2023-12-26T14:24:49,2420,42.8014,5.9826,13.3123,4.60188,2453.672,38.4990
2023-12-26T14:27:49,2420,42.8014,5.9826,13.2975,4.60264,2453.649,38.5209
2023-12-26T14:30:49,2420,42.8014,5.9826,13.3023,4.60379,2453.664,38.5269
2023-12-26T14:33:49,2420,42.8014,5.9826,13.2981,4.60086,2453.672,38.5035
2023-12-26T14:36:49,2420,42.8014,5.9826,13.2979,4.60252,2453.695,38.5194
2023-12-26T14:39:49,2420,42.8014,5.9826,13.2978,4.60308,2453.672,38.5248
2023-12-26T14:42:49,2420,42.8014,5.9826,13.2979,4.60479,2453.672,38.5407
2023-12-26T14:45:49,2420,42.8014,5.9826,13.2981,4.60198,2453.672,38.5141
2023-12-26T14:48:49,2420,42.8014,5.9826,13.2975,4.60291,2453.687,38.5234
2023-12-26T14:51:49,2420,42.8014,5.9826,13.2975,4.60067,2453.672,38.5022
2023-12-26T14:54:49,2420,42.8014,5.9826,13.2978,4.60301,2453.672,38.5241
2023-12-26T14:57:49,2420,42.8014,5.9826,13.2988,4.60409,2453.695,38.5332
2023-12-26T15:00:49,2420,42.8014,5.9826,13.2978,4.60109,2453.649,38.5060
2023-12-26T15:03:49,2420,42.8014,5.9826,13.2977,4.60147,2453.695,38.5096
2023-12-26T15:06:49,2420,42.8014,5.9826,13.2978,4.60077,2453.687,38.5029
2023-12-26T15:09:49,2420,42.8014,5.9826,13.2991,4.60111,2453.672,38.5048
2023-12-26T15:12:49,2420,42.8014,5.9826,13.3009,4.60081,2453.672,38.5002
2023-12-26T15:15:49,2420,42.8014,5.9826,13.2978,4.60063,2453.649,38.5016
2023-12-26T15:18:49,2420,42.8014,5.9826,13.2979,4.60040,2453.695,38.4993
2023-12-26T15:21:49,2420,42.8014,5.9826,13.3015,4.60028,2453.695,38.4947
2023-12-26T15:24:49,2420,42.8014,5.9826,13.2979,4.60012,2453.695,38.4967
2023-12-26T15:27:49,2420,42.8014,5.9826,13.3724,4.60020,2453.672,38.4236
2023-12-26T15:30:49,2420,42.8014,5.9826,13.3285,4.60005,2453.709,38.4657
2023-12-26T15:33:49,2420,42.8014,5.9826,13.3094,4.59984,2453.687,38.4826
2023-12-26T15:36:49,2420,42.8014,5.9826,13.3180,4.59973,2453.695,38.4730
2023-12-26T15:39:49,2420,42.8014,5.9826,13.3145,4.59973,2453.695,38.4765
2023-12-26T15:42:49,2420,42.8014,5.9826,13.3132,4.59998,2453.709,38.4801
2023-12-26T15:45:49,2420,42.8014,5.9826,13.3127,4.59991,2453.709,38.4800
2023-12-26T15:48:49,2420,42.8014,5.9826,13.3111,4.60002,2453.687,38.4827
2023-12-26T15:51:49,2420,42.8014,5.9826,13.3113,4.59979,2453.717,38.4802
2023-12-26T15:54:49,2420,42.8014,5.9826,13.3110,4.60020,2453.717,38.4844
2023-12-26T15:57:49,2420,42.8014,5.9826,13.3109,4.59982,2453.717,38.4810
2023-12-26T16:00:49,2420,42.8014,5.9826,13.3096,4.59973,2453.717,38.4813
2023-12-26T16:03:49,2420,42.8014,5.9826,13.3107,4.59993,2453.740,38.4821